Location: Poznań
(52.4064°N, 16.9252°E)
Time: 11:54:33
(UTC+01:00)

ISS - Visible Passes

Search period start: 24 March 2019 00:00
Search period end: 03 April 2019 01:00
Orbit: 408 x 411 km, 51.6° (Epoch: 24 March)

Date Brightness Start Highest point End Pass type
(mag) Time Alt. Az. Time Alt. Az. Time Alt. Az.
24 Mar -3.0 19:33:07 10° SW 19:36:08 33° SSE 19:37:09 27° ESE visible
24 Mar -1.1 21:09:12 10° WSW 21:09:56 16° WSW 21:09:56 16° WSW visible
25 Mar -2.4 18:42:55 10° SSW 18:45:37 24° SSE 18:48:21 10° E visible
25 Mar -3.7 20:18:35 10° WSW 20:21:38 62° SSW 20:21:38 62° SSW visible
26 Mar -3.6 19:28:01 10° WSW 19:31:15 52° SSE 19:33:13 21° E visible
26 Mar -1.8 21:04:26 10° W 21:05:59 25° W 21:05:59 25° W visible
27 Mar -3.9 20:13:45 10° W 20:17:04 79° S 20:17:27 65° ESE visible
28 Mar -3.8 19:23:05 10° WSW 19:26:24 71° S 19:28:52 17° E visible
28 Mar -2.3 20:59:38 10° W 21:01:37 33° W 21:01:37 33° W visible
29 Mar -3.9 20:08:56 10° W 20:12:14 78° S 20:12:58 51° ESE visible
29 Mar -0.6 21:45:33 10° W 21:45:43 11° W 21:45:43 11° W visible
30 Mar -3.8 19:18:13 10° W 19:21:32 80° S 19:24:16 14° E visible
30 Mar -2.5 20:54:47 10° W 20:57:01 35° WSW 20:57:01 35° WSW visible
31 Mar -3.7 21:04:03 10° W 21:07:21 63° SSW 21:08:18 40° SE visible
31 Mar -0.7 22:40:54 10° W 22:41:03 11° W 22:41:03 11° W visible
01 Apr -3.8 20:13:19 10° W 20:16:38 74° S 20:19:35 12° ESE visible
01 Apr -2.3 21:50:00 10° W 21:52:20 28° SW 21:52:20 28° SW visible
02 Apr -3.1 20:59:10 10° W 21:02:19 42° SSW 21:03:36 28° SSE visible
